FW4331 Weather Reports


time (UTC)temp
F
wind
direction
speed
knots
gust
knots
rain 1hr
in
rain 24hr
in
rain mn
in
humidity
%
barometer
mb
20260831211528 83 128 0.0 0.0 0.00 0.00 0.00 56 1016.7
20260831210026 83 128 0.0 0.0 0.00 0.00 0.00 55 1016.9
20260831204524 84 127 0.0 0.0 0.00 0.00 0.00 55 1016.8
20260831203021 84 128 0.0 0.0 0.00 0.00 0.00 55 1016.7
20260831201520 84 131 0.0 1.7 0.00 0.00 0.00 53 1016.8
20260831200050 84 135 0.0 1.7 0.00 0.00 0.00 53 1016.9
20260831194515 85 131 0.0 0.9 0.00 0.00 0.00 52 1016.8
20260831193019 86 124 0.9 2.6 0.00 0.00 0.00 50 1017.0
20260831191510 86 145 0.0 2.6 0.00 0.00 0.00 51 1017.3
20260831190020 86 150 0.0 2.6 0.00 0.00 0.00 50 1017.4
20260831184506 87 329 0.0 3.5 0.00 0.00 0.00 50 1017.6
20260831183005 86 320 1.7 3.5 0.00 0.00 0.00 50 1017.5
20260831181503 85 181 1.7 3.5 0.00 0.00 0.00 51 1017.6
20260831180100 85 128 0.9 3.5 0.00 0.00 0.00 52 1017.5
20260831174621 85 138 0.0 3.5 0.00 0.00 0.00 51 1017.7
20260831173056 86 166 1.7 5.2 0.00 0.00 0.00 50 1017.8
20260831171553 86 129 0.9 3.5 0.00 0.00 0.00 49 1017.8
20260831170055 88 146 0.9 2.6 0.00 0.00 0.00 48 1017.8
20260831164553 87 69 0.9 5.2 0.00 0.00 0.00 46 1017.9
20260831163041 85 300 1.7 3.5 0.00 0.00 0.00 31 1018.3
20260831161538 85 234 1.7 5.2 0.00 0.00 0.00 32 1018.5
20260831160033 83 299 0.9 6.1 0.00 0.00 0.00 35 1018.5
20260831154531 82 165 0.0 5.2 0.00 0.00 0.00 37 1018.3
20260831153029 82 153 2.6 7.0 0.00 0.00 0.00 37 1018.2
20260831151527 82 264 2.6 7.0 0.00 0.00 0.00 36 1018.2
20260831150024 82 286 1.7 9.6 0.00 0.00 0.00 34 1018.2
20260831144517 82 143 0.0 4.3 0.00 0.00 0.00 37 1018.2
20260831143015 80 277 1.7 7.0 0.00 0.00 0.00 38 1018.3
20260831141511 79 287 1.7 6.1 0.00 0.00 0.00 39 1018.2
20260831140007 79 308 2.6 6.1 0.00 0.00 0.00 40 1018.2
20260831134516 78 129 0.9 7.0 0.00 0.00 0.00 41 1018.3
20260831133011 78 154 0.9 5.2 0.00 0.00 0.00 41 1018.2
20260831131501 78 241 2.6 8.7 0.00 0.00 0.00 40 1018.3
20260831130055 76 275 0.9 7.0 0.00 0.00 0.00 42 1018.2
20260831124551 76 210 0.9 8.7 0.00 0.00 0.00 42 1018.1
20260831123046 74 193 3.5 7.8 0.00 0.00 0.00 44 1018.2
20260831121545 73 217 1.7 5.2 0.00 0.00 0.00 45 1017.9
20260831120042 72 144 1.7 5.2 0.00 0.00 0.00 46 1017.9
20260831114535 72 146 0.9 4.3 0.00 0.00 0.00 46 1017.9
20260831113033 72 166 0.9 3.5 0.00 0.00 0.00 46 1017.7
20260831111529 0 0.0 0.0 0.00 0.00 0.00 1017.6
20260831110024 0 0.0 0.0 0.00 0.00 0.00 1017.4
20260831104529 0 0.0 0.0 0.00 0.00 0.00 1017.1
20260831103022 70 4 0.0 0.0 0.00 0.00 0.00 48 1017.1
20260831101516 69 273 0.0 0.0 0.00 0.00 0.00 47 1016.9
20260831100014 69 273 0.0 0.0 0.00 0.00 0.00 47 1017.1
20260831094520 70 359 0.0 0.0 0.00 0.00 0.00 47 1017.1
20260831093015 70 351 0.0 0.0 0.00 0.00 0.00 48 1017.1
20260831091518 69 18 0.0 0.0 0.00 0.00 0.00 47 1017.0
20260831090004 69 36 0.0 0.0 0.00 0.00 0.00 47 1016.9
20260831084511 69 35 0.0 0.0 0.00 0.00 0.00 47 1017.0
20260831083001 69 13 0.0 0.0 0.00 0.00 0.00 48 1016.8
20260831081558 69 141 0.0 0.0 0.00 0.00 0.00 47 1016.7
20260831080117 69 146 0.0 0.0 0.00 0.00 0.00 46 1016.5
20260831074552 69 146 0.0 0.0 0.00 0.00 0.00 46 1016.5
20260831073048 69 146 0.0 0.0 0.00 0.00 0.00 45 1016.6
20260831071548 69 146 0.0 0.0 0.00 0.00 0.00 44 1016.6
20260831070041 70 145 0.0 0.0 0.00 0.00 0.00 44 1016.7
20260831064548 70 275 0.0 0.0 0.00 0.00 0.00 44 1016.7
20260831063053 70 274 0.0 0.0 0.00 0.00 0.00 44 1016.8
20260831061535 70 274 0.0 0.0 0.00 0.00 0.00 44 1016.9
20260831060032 70 275 0.0 0.0 0.00 0.00 0.00 44 1016.9
20260831054528 70 274 0.0 0.0 0.00 0.00 0.00 42 1017.0
20260831053026 71 275 0.0 0.0 0.00 0.00 0.00 42 1017.0
20260831051532 71 275 0.0 0.0 0.00 0.00 0.00 41 1017.1
20260831050019 72 275 0.0 0.0 0.00 0.00 0.00 40 1017.2
20260831044517 72 274 0.0 0.0 0.00 0.00 0.00 40 1017.2
20260831043013 72 275 0.0 0.0 0.00 0.00 0.00 39 1017.3
20260831041512 72 275 0.0 0.0 0.00 0.00 0.00 40 1017.5
20260831040014 72 275 0.0 0.0 0.00 0.00 0.00 45 1017.4
20260831034506 73 275 0.0 0.0 0.00 0.00 0.00 47 1017.5
20260831033002 73 274 0.0 0.0 0.00 0.00 0.00 47 1017.4
20260831031600 73 275 0.0 0.0 0.00 0.00 0.00 47 1017.4
20260831030057 73 275 0.0 0.0 0.00 0.00 0.00 48 1017.6
20260831024600 73 275 0.0 0.0 0.00 0.00 0.00 55 1017.9
20260831023054 74 274 0.0 0.0 0.00 0.00 0.00 60 1017.9
20260831021552 74 276 0.0 0.0 0.00 0.00 0.00 60 1018.0
20260831020050 74 172 0.0 0.0 0.00 0.00 0.00 61 1017.9
20260831014548 74 174 0.0 0.0 0.00 0.00 0.00 61 1018.1
20260831013047 74 174 0.0 0.0 0.00 0.00 0.00 62 1018.0
20260831011545 75 174 0.0 0.0 0.00 0.00 0.00 62 1017.9
20260831010040 76 170 0.0 0.9 0.00 0.00 0.00 61 1017.7
20260831004540 76 136 0.0 1.7 0.00 0.00 0.00 60 1017.6
20260831003137 76 103 0.0 2.6 0.00 0.00 0.00 60 1017.4
20260831001534 76 134 0.9 3.5 0.00 0.00 0.00 60 1017.4
20260831000034 77 88 2.6 5.2 0.00 0.00 0.00 60 1017.2
20260830234631 78 122 0.9 2.6 0.00 0.00 0.00 60 1017.2
20260830233028 79 7 1.7 6.1 0.00 0.00 0.00 58 1017.4
20260830231527 83 317 2.6 7.8 0.00 0.00 0.00 55 1017.5
20260830230025 84 197 0.9 3.5 0.00 0.00 0.00 54 1017.0
20260830224522 84 165 0.9 2.6 0.00 0.00 0.00 54 1017.0
20260830223025 84 137 0.9 4.3 0.00 0.00 0.00 54 1017.1
20260830221518 85 173 1.7 5.2 0.00 0.00 0.00 52 1016.8
20260830220018 87 174 3.5 6.1 0.00 0.00 0.00 50 1016.6
20260830214615 85 282 2.6 5.2 0.00 0.00 0.00 52 1016.5
20260830213013 87 209 3.5 7.8 0.00 0.00 0.00 49 1016.5